GFSFLT2_925_spd_309.txt.gz
Wind_Speed
18 16 19 18 20 18 20 20 20 19 16 16 17 18 18 20 21 23 24 25 26 26 27 29 29 29 29
21 21 19 17 20 21 21 19 20 23 20 19 19 20 20 21 21 22 23 25 27 28 28 29 30 30 30
20 21 21 19 17 18 19 21 21 23 21 20 21 22 21 22 22 23 25 27 28 29 30 30 30 31 33
18 20 21 21 18 20 21 17 19 18 19 24 23 23 22 23 23 23 23 24 25 26 27 29 31 32 33
19 19 21 20 17 17 22 26 24 20 20 22 20 22 26 27 27 27 25 23 24 27 30 32 33 34 35
22 20 18 18 16 20 23 24 20 18 18 21 18 24 25 26 32 32 27 26 26 28 30 33 35 37 38
19 16 17 18 20 24 27 26 28 26 24 30 24 29 25 28 30 31 30 30 30 31 32 34 36 38 40
26 25 25 24 25 29 30 33 34 28 23 31 22 32 29 31 32 32 32 33 33 32 32 34 36 39 41
27 28 29 28 28 25 18 22 25 22 18 25 28 32 32 36 34 31 33 31 31 31 32 33 36 38 41
24 26 20 20 22 24 25 26 26 24 23 29 28 24 24 27 28 29 29 30 28 30 31 32 34 37 36
14 19 19 20 22 22 24 27 27 27 18 22 27 22 23 29 32 28 23 28 29 30 34 37 37 37 40
22 23 23 23 23 23 23 24 27 31 30 29 22 21 26 28 27 25 26 28 29 34 34 35 34 35 36
20 22 22 21 19 21 23 25 27 26 26 26 29 29 30 32 31 31 29 29 27 30 31 32 33 32 33
18 19 19 21 20 19 20 21 21 24 23 25 25 26 29 31 30 32 31 25 25 26 29 31 33 33 34
15 17 18 18 20 19 19 20 19 21 23 23 23 24 26 28 28 29 29 31 31 32 29 31 33 33 33
15 16 18 19 19 20 19 19 19 20 20 22 21 21 21 23 25 29 28 28 30 31 31 28 30 31 28
16 17 18 19 20 20 19 19 19 20 21 22 20 18 11 11 22 21 25 22 20 22 26 28 24 25 28

GFSFLT2_925_spd_315.txt.gz
Wind_Speed
15 14 15 15 14 14 14 15 17 14 14 14 14 15 15 15 15 15 16 16 15 14 14 14 14 15 15
16 15 16 16 16 16 15 14 16 16 17 18 19 19 18 17 17 17 18 18 17 16 17 17 17 17 16
16 16 17 17 17 16 16 15 16 17 17 18 19 19 19 18 19 19 19 18 18 18 18 17 17 17 17
15 18 17 17 15 17 17 17 17 14 16 17 19 21 21 21 21 22 22 21 21 21 21 20 19 19 18
17 17 18 16 16 17 16 15 17 17 18 17 19 18 18 18 18 20 20 20 20 21 22 22 22 22 22
19 19 22 21 19 19 17 16 13 15 19 19 18 17 19 20 21 22 23 24 23 24 24 24 25 25 25
21 19 18 17 18 17 16 17 18 18 21 22 21 24 25 26 26 26 24 24 25 26 27 27 28 28 28
23 25 25 23 23 25 26 28 26 23 22 24 24 25 21 23 24 25 26 29 30 30 29 28 28 29 29
25 26 26 27 28 29 26 25 24 18 17 21 19 21 24 29 32 32 31 30 29 29 29 28 27 27 29
23 21 21 22 25 29 27 24 22 22 20 20 20 22 23 26 31 30 17 16 18 20 21 25 27 27 29
17 19 20 19 20 22 26 23 23 24 25 25 24 23 23 25 23 24 30 30 25 25 26 26 27 28 30
19 21 22 22 22 22 22 24 26 28 26 26 22 22 22 23 23 25 25 26 27 27 27 28 28 28 30
19 20 20 21 22 22 24 25 29 30 28 29 29 27 27 28 26 24 26 25 26 30 30 28 29 28 29
17 18 19 19 19 19 21 22 24 25 26 27 29 29 29 29 27 27 25 22 22 26 28 29 29 30 31
18 18 19 18 19 19 20 21 21 21 22 23 24 28 31 31 27 26 25 27 27 29 28 29 29 28 29
19 19 19 19 19 19 19 19 21 22 22 22 21 21 23 26 27 28 28 27 28 28 28 27 29 28 27
19 20 21 21 22 21 20 20 21 22 23 23 23 21 10 10 21 23 26 26 27 25 26 28 31 31 31

GFSFLT2_925_spd_318.txt.gz
Wind_Speed
15 14 16 16 15 14 14 15 14 12 12 12 13 14 14 15 15 15 14 14 14 13 12 11 12 12 12
17 16 16 17 19 18 16 15 15 15 14 14 15 16 17 17 17 17 16 16 16 15 14 13 12 12 12
17 17 20 20 19 17 17 18 16 19 14 13 13 14 16 16 17 17 18 17 17 17 17 17 16 16 14
16 19 20 21 18 19 21 18 19 15 14 16 17 17 18 18 18 18 17 18 17 18 19 19 19 18 18
14 16 18 18 17 20 19 21 21 22 20 19 16 18 19 18 18 18 17 16 17 17 17 18 19 20 19
18 17 20 23 20 20 20 18 13 19 19 20 18 21 27 25 26 24 24 23 22 22 22 22 22 22 22
27 25 20 18 24 21 22 20 18 20 23 24 25 27 28 27 25 23 23 23 24 24 23 24 25 25 25
23 23 24 25 25 25 25 26 27 25 25 24 23 26 26 23 20 20 22 24 26 27 29 31 30 29 28
21 23 25 26 26 25 22 18 19 21 22 19 18 22 22 23 25 26 29 31 29 29 28 26 27 28 29
24 23 22 23 21 22 27 22 21 20 21 22 21 17 11 22 23 18 16 17 18 20 21 23 23 23 29
18 16 19 20 22 22 23 25 23 25 25 24 23 22 21 19 24 26 28 28 30 32 33 28 26 26 29
15 18 20 21 22 23 24 24 24 24 21 21 24 20 21 22 22 26 27 27 30 32 31 29 27 27 29
19 21 21 21 21 22 24 26 29 31 30 29 29 28 27 26 26 24 26 27 26 29 32 31 30 28 30
19 22 24 23 23 22 22 24 27 28 27 26 26 28 28 26 25 25 24 21 22 27 29 33 32 30 30
21 22 20 19 20 20 21 23 22 21 22 22 22 25 29 31 27 25 26 27 30 30 28 30 30 29 30
20 21 20 19 19 21 22 23 22 23 23 24 23 24 23 25 25 27 27 27 27 30 31 27 28 27 30
21 23 22 22 22 21 20 20 22 22 23 23 23 19 8 11 23 21 24 25 26 27 29 28 29 30 31

GFSFLT2_925_spd_324.txt.gz
Wind_Speed
4 8 10 10 11 13 14 13 12 11 10 10 10 11 10 10 11 11 12 13 14 14 14 14 14 14 13
9 10 11 10 13 15 13 11 11 11 11 11 11 11 10 10 10 12 12 13 14 14 15 15 15 15 15
10 12 13 13 14 12 11 10 9 10 10 10 10 9 9 11 10 12 13 14 14 15 15 16 17 17 17
12 14 14 13 13 12 14 14 15 13 12 11 12 13 12 12 12 13 16 15 14 14 14 14 15 16 17
14 15 17 15 12 12 15 16 16 16 16 12 12 13 12 13 15 19 22 18 17 18 18 19 18 18 19
18 16 19 16 15 16 16 13 6 18 11 20 21 20 21 24 26 20 18 18 17 18 18 18 18 19 21
19 18 18 13 14 16 18 18 18 23 19 20 22 23 23 24 22 19 18 16 16 17 17 20 22 23 23
19 20 19 18 18 20 20 22 23 26 25 13 21 23 24 24 23 20 19 21 22 21 20 20 19 23 25
20 20 20 19 20 22 19 14 9 12 15 16 20 24 25 27 27 24 23 22 21 22 17 21 24 27 26
23 21 21 21 21 20 22 20 17 12 14 16 17 18 14 23 21 15 16 20 20 20 26 28 29 29 29
24 24 21 20 20 19 18 19 20 19 23 18 20 18 16 17 21 22 22 26 28 32 36 32 29 27 30
21 21 19 19 18 17 20 19 19 21 23 19 17 19 22 22 22 24 27 29 32 34 33 30 28 27 28
14 17 18 16 16 19 19 20 21 21 21 22 22 24 25 24 23 23 23 24 29 30 30 29 29 29 31
18 17 16 15 17 19 20 20 19 22 20 20 20 19 23 25 24 22 22 19 24 29 32 33 32 32 31
22 19 19 19 21 20 19 19 20 22 25 25 22 21 22 25 26 23 24 26 26 29 27 27 28 27 28
23 21 19 19 22 22 21 21 21 21 22 26 25 24 24 24 22 27 25 25 27 26 27 28 29 27 27
16 18 19 20 17 19 19 19 20 21 22 23 23 21 13 11 21 20 27 26 25 25 25 27 30 30 29